Flag for U.S.A. Weather past 2 weeks in Augusta, Georgia, U.S.A.

Now
82 °F

Broken clouds.


Feels Like: 82 °F
Forecast: 64 / 84 °F
Wind: 5 mph from North

Location: Daniel Field

Current Time: Apr 26, 2015 at 7:37:40 PM

Latest Report: Apr 26, 2015 at 6:53 PM


Visibility: 10 mi

Pressure: 29.60 "Hg

Humidity: 46%

Dew point: 59 °F

Location of AugustaLocation

Historic Weather in Augusta — Graph

°F

Augusta temperature yesterday

Maximum temperature yesterday: 78 °F (at 5:53 PM)
Minimum temperature yesterday: 58 °F (at 8:53 AM)
Average temperature yesterday: 67 °F

Past Weeks' High & Low Weather Summary

 TemperatureHumidityPressure
High86 °F (Apr 26, 3:53 PM)96% (Apr 19, 2:53 AM)30.29 "Hg (Apr 19, 2:53 AM)
Low52 °F (Apr 16, 8:53 AM)21% (Apr 24, 3:53 PM)29.59 "Hg (Apr 26, 4:53 PM)
Average68 °F70%29.98 "Hg
* Reported Apr 11 5:53 PM — Apr 26 5:53 PM, Augusta, Weather by CustomWeather, © 2015

Note: Actual official high and low records may vary slightly from our data, if they occured in-between our weather recording intervals... More about our weather records

Advertising

Augusta weather history for previous 24 hours

 ConditionsComfort  
Time TempWeatherWind HumidityBarometerVisibility
5:53 PM
Sun, Apr 26
84 °FSunny.6 mph45%29.59 "Hg10 mi
4:53 PM84 °FPassing clouds.12 mph45%29.59 "Hg10 mi
3:53 PM86 °FScattered clouds.8 mph43%29.59 "Hg10 mi
2:53 PM83 °FScattered clouds.10 mph46%29.61 "Hg10 mi
1:53 PM82 °FSunny.9 mph48%29.63 "Hg10 mi
12:53 PM80 °FPassing clouds.8 mph58%29.65 "Hg10 mi
11:53 AM77 °FSunny.8 mph64%29.65 "Hg10 mi
10:53 AM74 °FScattered clouds.10 mph71%29.66 "Hg10 mi
9:53 AM72 °FPartly sunny.5 mph76%29.65 "Hg10 mi
8:53 AM69 °FPartly sunny.8 mph81%29.65 "Hg10 mi
7:53 AM67 °FPartly sunny.7 mph87%29.64 "Hg10 mi
6:53 AM66 °FPassing clouds.9 mph87%29.62 "Hg10 mi
5:53 AM66 °FPassing clouds.9 mph87%29.61 "Hg10 mi
4:53 AM67 °FClear.7 mph87%29.61 "Hg10 mi
3:53 AM67 °FPassing clouds.5 mph87%29.60 "Hg10 mi
2:53 AM67 °FClear.7 mph90%29.59 "Hg10 mi
1:53 AM68 °FPassing clouds.8 mph87%29.60 "Hg10 mi
12:53 AM68 °FPassing clouds.8 mph90%29.62 "Hg10 mi
11:53 PM
Sat, Apr 25
69 °FClear.9 mph87%29.63 "Hg10 mi
10:53 PM71 °FClear.13 mph81%29.64 "Hg10 mi
9:53 PM74 °FPassing clouds.13 mph82%29.62 "Hg10 mi
8:53 PM74 °FLight rain. Partly sunny.5 mph82%29.61 "Hg10 mi
7:53 PM76 °FSunny.6 mph74%29.64 "Hg10 mi
Weather by CustomWeather, © 2015

See weather overviewHow to use our weather pages